Tracking 27423 objects as of 8-Jun-2023
HD Live streaming from Space Station
objects crossing your sky now

SL-8 DEB *

Track SL-8 DEB * now!
10-day predictions


NORAD ID: 14817
Int'l Code: 1976-098D
Perigee: 569.8 km
Apogee: 580.8 km
Inclination: 74.1 °
Period: 96.0 minutes
Semi major axis: 6946 km
RCS: 0.0066 m2 (small)
Launch date: September 29, 1976
Source: Commonwealth of Independent States (former USSR) (CIS)
Launch site: PLESETSK MISSILE AND SPACE COMPLEX (PKMTR)

Note: This is SATELLITE DEBRIS
Your satellite tracking list
Your tracking list is empty




NASA's NSSDC Master Catalog

Two Line Element Set (TLE):
1 14817U 76098D   23159.49317917  .00013876  00000-0  11280-2 0  9991
2 14817  74.0761 299.8479 0007917 117.7955 313.0818 14.99582269299633
Source of the keplerian elements: AFSPC